Location: ?????????
(38.0736°N, 23.2119°E)
Time: 06:48:28
(UTC+00:00)

Okean O Rocket - Visible Passes

Search period start: 13 July 2024 00:00
Search period end: 23 July 2024 00:00
Orbit: 617 x 640 km, 98.1° (Epoch: 12 July)

Date Brightness Start Highest point End Pass type
(mag) Time Alt. Az. Time Alt. Az. Time Alt. Az.
13 Jul 3.1 19:14:19 10° SSW 19:18:12 33° W 19:22:06 10° NNW visible
14 Jul 3.9 19:35:05 10° SW 19:38:15 20° W 19:41:25 10° NW visible
15 Jul 1.8 18:17:37 10° SSE 18:21:48 53° ENE 18:26:01 10° N visible
15 Jul 4.3 19:56:48 10° WSW 19:58:21 12° W 19:59:55 10° WNW visible
16 Jul 1.6 18:37:23 10° SSE 18:41:42 89° W 18:46:02 10° NNW visible
17 Jul 2.3 18:57:27 10° S 19:01:38 51° W 19:05:52 10° NNW visible
18 Jul 3.2 19:17:51 10° SSW 19:21:38 30° W 19:25:28 10° NW visible
19 Jul 4.0 19:38:42 10° SW 19:41:41 18° W 19:44:42 10° NW visible
20 Jul 1.7 18:20:59 10° SSE 18:25:12 58° ENE 18:29:27 10° N visible
20 Jul 4.4 20:00:46 10° WSW 20:01:48 11° W 20:02:50 10° WNW visible
21 Jul 1.6 18:40:47 10° S 18:45:06 82° W 18:49:26 10° NNW visible
22 Jul 2.5 19:00:54 10° S 19:05:02 47° W 19:09:13 10° NNW visible
